Time,TemperatureF,DewpointF,PressureIn,WindDirection,WindDirectionDegrees,WindSpeedMPH,WindSpeedGustMPH,Humidity,HourlyPrecipIn,Conditions,Clouds,dailyrainin,SoftwareType,DateUTC
2013-07-14 00:02:00,64.2,48.7,30.03,NE,45,5.0,7.0,57,0.00,,,0.00,meteohub,2013-07-14 07:02:00,
2013-07-14 00:03:00,64.0,48.9,30.02,East,90,5.0,7.0,58,0.00,,,0.00,meteohub,2013-07-14 07:03:00,
2013-07-14 00:08:00,63.7,49.1,30.03,East,90,4.0,7.0,59,0.00,,,0.00,meteohub,2013-07-14 07:08:00,
2013-07-14 00:13:00,63.3,49.6,30.03,NE,45,4.0,7.0,61,0.00,,,0.00,meteohub,2013-07-14 07:13:00,
2013-07-14 00:18:00,62.8,50.0,30.03,NE,45,5.0,6.0,63,0.00,,,0.00,meteohub,2013-07-14 07:18:00,
2013-07-14 00:23:00,63.0,50.2,30.03,NE,45,5.0,6.0,63,0.00,,,0.00,meteohub,2013-07-14 07:23:00,
2013-07-14 00:28:00,62.6,50.2,30.03,NE,45,5.0,6.0,64,0.00,,,0.00,meteohub,2013-07-14 07:28:00,
2013-07-14 00:33:00,62.2,50.7,30.03,NE,45,4.0,6.0,66,0.00,,,0.00,meteohub,2013-07-14 07:33:00,
2013-07-14 00:38:00,62.1,50.9,30.03,East,90,5.0,6.0,67,0.00,,,0.00,meteohub,2013-07-14 07:38:00,
2013-07-14 00:43:00,62.4,51.3,30.03,ENE,68,4.0,5.0,67,0.00,,,0.00,meteohub,2013-07-14 07:43:00,
2013-07-14 00:48:00,62.1,50.5,30.04,NE,45,2.0,5.0,66,0.00,,,0.00,meteohub,2013-07-14 07:48:00,
2013-07-14 00:53:00,61.2,50.9,30.03,NE,45,3.0,5.0,69,0.00,,,0.00,meteohub,2013-07-14 07:53:00,
2013-07-14 00:58:00,60.6,50.7,30.03,North,0,2.0,4.0,70,0.00,,,0.00,meteohub,2013-07-14 07:58:00,
2013-07-14 01:03:00,60.4,51.4,30.04,North,0,2.0,4.0,72,0.00,,,0.00,meteohub,2013-07-14 08:03:00,
2013-07-14 01:08:00,60.4,51.8,30.04,North,0,2.0,3.0,73,0.00,,,0.00,meteohub,2013-07-14 08:08:00,
2013-07-14 01:13:00,60.6,51.6,30.04,NE,45,1.0,3.0,72,0.00,,,0.00,meteohub,2013-07-14 08:13:00,
2013-07-14 01:18:00,60.6,51.6,30.04,NE,45,2.0,3.0,72,0.00,,,0.00,meteohub,2013-07-14 08:18:00,
2013-07-14 01:23:00,60.6,51.6,30.03,NE,45,2.0,2.0,72,0.00,,,0.00,meteohub,2013-07-14 08:23:00,
2013-07-14 01:28:00,60.6,51.6,30.04,NE,45,3.0,3.0,72,0.00,,,0.00,meteohub,2013-07-14 08:28:00,
2013-07-14 01:33:00,61.0,51.4,30.04,East,90,3.0,3.0,71,0.00,,,0.00,meteohub,2013-07-14 08:33:00,
2013-07-14 01:38:00,61.2,51.3,30.03,NE,45,2.0,4.0,70,0.00,,,0.00,meteohub,2013-07-14 08:38:00,
2013-07-14 01:43:00,60.8,50.5,30.04,NE,45,0.0,4.0,69,0.00,,,0.00,meteohub,2013-07-14 08:43:00,
2013-07-14 01:48:00,60.3,50.4,30.04,NE,45,0.0,3.0,70,0.00,,,0.00,meteohub,2013-07-14 08:48:00,
2013-07-14 01:53:00,59.9,50.5,30.03,NE,45,1.0,3.0,71,0.00,,,0.00,meteohub,2013-07-14 08:53:00,
2013-07-14 01:58:00,59.9,50.9,30.04,NE,45,0.0,2.0,72,0.00,,,0.00,meteohub,2013-07-14 08:58:00,
2013-07-14 02:03:00,59.7,50.4,30.03,NE,45,1.0,3.0,71,0.00,,,0.00,meteohub,2013-07-14 09:03:00,
2013-07-14 02:08:00,59.7,51.1,30.03,NE,45,2.0,3.0,73,0.00,,,0.00,meteohub,2013-07-14 09:08:00,
2013-07-14 02:13:00,59.7,51.4,30.04,North,0,2.0,3.0,74,0.00,,,0.00,meteohub,2013-07-14 09:13:00,
2013-07-14 02:18:00,59.9,51.3,30.04,NW,315,2.0,2.0,73,0.00,,,0.00,meteohub,2013-07-14 09:18:00,
2013-07-14 02:23:00,60.1,51.4,30.04,SW,225,1.0,2.0,73,0.00,,,0.00,meteohub,2013-07-14 09:23:00,
2013-07-14 02:28:00,59.9,50.9,30.04,West,270,1.0,2.0,72,0.00,,,0.00,meteohub,2013-07-14 09:28:00,
2013-07-14 02:33:00,59.7,51.1,30.04,NW,315,3.0,3.0,73,0.00,,,0.00,meteohub,2013-07-14 09:33:00,
2013-07-14 02:38:00,59.5,51.3,30.04,NW,315,2.0,3.0,74,0.00,,,0.00,meteohub,2013-07-14 09:38:00,
2013-07-14 02:43:00,59.5,50.9,30.04,NW,315,1.0,3.0,73,0.00,,,0.00,meteohub,2013-07-14 09:43:00,
2013-07-14 02:48:00,59.2,50.9,30.04,NW,315,0.0,3.0,74,0.00,,,0.00,meteohub,2013-07-14 09:48:00,
2013-07-14 02:53:00,58.6,50.7,30.04,NW,315,1.0,3.0,75,0.00,,,0.00,meteohub,2013-07-14 09:53:00,
2013-07-14 02:58:00,58.5,50.9,30.04,NW,315,2.0,2.0,76,0.00,,,0.00,meteohub,2013-07-14 09:58:00,
2013-07-14 03:03:00,58.3,50.7,30.04,NW,315,2.0,2.0,76,0.00,,,0.00,meteohub,2013-07-14 10:03:00,
2013-07-14 03:08:00,58.3,50.7,30.04,West,270,2.0,2.0,76,0.00,,,0.00,meteohub,2013-07-14 10:08:00,
2013-07-14 03:13:00,58.1,50.5,30.04,West,270,4.0,4.0,76,0.00,,,0.00,meteohub,2013-07-14 10:13:00,
2013-07-14 03:18:00,57.7,50.5,30.04,West,270,4.0,4.0,77,0.00,,,0.00,meteohub,2013-07-14 10:18:00,
2013-07-14 03:23:00,57.2,50.4,30.04,West,270,4.0,4.0,78,0.00,,,0.00,meteohub,2013-07-14 10:23:00,
2013-07-14 03:28:00,56.7,50.2,30.04,NW,315,5.0,5.0,79,0.00,,,0.00,meteohub,2013-07-14 10:28:00,
2013-07-14 03:33:00,56.3,50.2,30.05,NW,315,4.0,6.0,80,0.00,,,0.00,meteohub,2013-07-14 10:33:00,
2013-07-14 03:38:00,56.1,50.0,30.05,NW,315,3.0,6.0,80,0.00,,,0.00,meteohub,2013-07-14 10:38:00,
2013-07-14 03:43:00,56.1,50.4,30.04,NW,315,2.0,6.0,81,0.00,,,0.00,meteohub,2013-07-14 10:43:00,
2013-07-14 03:48:00,55.8,50.0,30.05,NW,315,2.0,5.0,81,0.00,,,0.00,meteohub,2013-07-14 10:48:00,
2013-07-14 03:53:00,55.6,49.8,30.05,NW,315,3.0,4.0,81,0.00,,,0.00,meteohub,2013-07-14 10:53:00,
2013-07-14 03:58:00,55.4,50.0,30.05,NW,315,3.0,4.0,82,0.00,,,0.00,meteohub,2013-07-14 10:58:00,
2013-07-14 04:03:00,55.2,49.8,30.05,NW,315,4.0,4.0,82,0.00,,,0.00,meteohub,2013-07-14 11:03:00,
2013-07-14 04:08:00,55.0,50.0,30.04,NW,315,4.0,4.0,83,0.00,,,0.00,meteohub,2013-07-14 11:08:00,
2013-07-14 04:13:00,55.0,50.0,30.05,NW,315,4.0,4.0,83,0.00,,,0.00,meteohub,2013-07-14 11:13:00,
2013-07-14 04:18:00,54.9,49.8,30.05,NW,315,3.0,4.0,83,0.00,,,0.00,meteohub,2013-07-14 11:18:00,
2013-07-14 04:23:00,54.7,50.0,30.04,NW,315,4.0,4.0,84,0.00,,,0.00,meteohub,2013-07-14 11:23:00,
2013-07-14 04:28:00,54.5,49.8,30.04,NW,315,3.0,4.0,84,0.00,,,0.00,meteohub,2013-07-14 11:28:00,
2013-07-14 04:33:00,54.3,49.8,30.05,NW,315,4.0,4.0,85,0.00,,,0.00,meteohub,2013-07-14 11:33:00,
2013-07-14 04:38:00,54.1,49.8,30.05,NW,315,4.0,4.0,85,0.00,,,0.00,meteohub,2013-07-14 11:38:00,
2013-07-14 04:43:00,54.0,49.8,30.05,NW,315,4.0,4.0,86,0.00,,,0.00,meteohub,2013-07-14 11:43:00,
2013-07-14 04:48:00,54.0,49.8,30.05,West,270,4.0,5.0,86,0.00,,,0.00,meteohub,2013-07-14 11:48:00,
2013-07-14 04:53:00,53.8,49.6,30.05,NW,315,3.0,5.0,86,0.00,,,0.00,meteohub,2013-07-14 11:53:00,
2013-07-14 04:58:00,53.8,49.6,30.05,West,270,3.0,5.0,86,0.00,,,0.00,meteohub,2013-07-14 11:58:00,
2013-07-14 05:03:00,53.6,49.5,30.05,NW,315,2.0,4.0,86,0.00,,,0.00,meteohub,2013-07-14 12:03:00,
2013-07-14 05:08:00,53.4,49.6,30.04,NW,315,2.0,4.0,87,0.00,,,0.00,meteohub,2013-07-14 12:08:00,
2013-07-14 05:13:00,53.2,49.5,30.04,NW,315,2.0,3.0,87,0.00,,,0.00,meteohub,2013-07-14 12:13:00,
2013-07-14 05:18:00,52.9,49.5,30.05,NW,315,2.0,2.0,88,0.00,,,0.00,meteohub,2013-07-14 12:18:00,
2013-07-14 05:23:00,52.9,49.5,30.05,NW,315,4.0,4.0,88,0.00,,,0.00,meteohub,2013-07-14 12:23:00,
2013-07-14 05:28:00,52.9,49.5,30.05,NW,315,4.0,4.0,88,0.00,,,0.00,meteohub,2013-07-14 12:28:00,
2013-07-14 05:33:00,52.7,49.5,30.05,NW,315,2.0,4.0,89,0.00,,,0.00,meteohub,2013-07-14 12:33:00,
2013-07-14 05:38:00,52.7,49.3,30.05,NW,315,2.0,4.0,88,0.00,,,0.00,meteohub,2013-07-14 12:38:00,
2013-07-14 05:43:00,52.5,49.1,30.05,NW,315,2.0,4.0,88,0.00,,,0.00,meteohub,2013-07-14 12:43:00,
2013-07-14 05:48:00,52.3,49.5,30.05,NW,315,3.0,4.0,90,0.00,,,0.00,meteohub,2013-07-14 12:48:00,
2013-07-14 05:53:00,52.2,49.3,30.05,NW,315,2.0,3.0,90,0.00,,,0.00,meteohub,2013-07-14 12:53:00,
2013-07-14 05:58:00,52.2,49.3,30.05,West,270,3.0,3.0,90,0.00,,,0.00,meteohub,2013-07-14 12:58:00,
2013-07-14 06:03:00,52.2,49.6,30.05,NW,315,4.0,4.0,91,0.00,,,0.00,meteohub,2013-07-14 13:03:00,
2013-07-14 06:08:00,52.3,49.8,30.05,NW,315,4.0,4.0,91,0.00,,,0.00,meteohub,2013-07-14 13:08:00,
2013-07-14 06:13:00,52.9,50.0,30.06,NW,315,4.0,4.0,90,0.00,,,0.00,meteohub,2013-07-14 13:13:00,
2013-07-14 06:18:00,53.8,50.4,30.05,West,270,4.0,4.0,88,0.00,,,0.00,meteohub,2013-07-14 13:18:00,
2013-07-14 06:23:00,54.3,50.2,30.05,West,270,4.0,5.0,86,0.00,,,0.00,meteohub,2013-07-14 13:23:00,
2013-07-14 06:28:00,55.0,50.5,30.06,NW,315,3.0,5.0,85,0.00,,,0.00,meteohub,2013-07-14 13:28:00,
2013-07-14 06:33:00,55.6,50.9,30.05,NW,315,4.0,5.0,84,0.00,,,0.00,meteohub,2013-07-14 13:33:00,
2013-07-14 06:38:00,55.9,50.9,30.05,NW,315,4.0,4.0,83,0.00,,,0.00,meteohub,2013-07-14 13:38:00,
2013-07-14 06:43:00,56.5,51.1,30.06,NW,315,3.0,4.0,82,0.00,,,0.00,meteohub,2013-07-14 13:43:00,
2013-07-14 06:48:00,57.2,51.4,30.06,NW,315,4.0,4.0,81,0.00,,,0.00,meteohub,2013-07-14 13:48:00,
2013-07-14 06:53:00,57.9,51.1,30.06,NW,315,3.0,4.0,78,0.00,,,0.00,meteohub,2013-07-14 13:53:00,
2013-07-14 06:58:00,58.5,51.3,30.06,North,0,4.0,4.0,77,0.00,,,0.00,meteohub,2013-07-14 13:58:00,
2013-07-14 07:03:00,58.8,51.6,30.06,NW,315,2.0,4.0,77,0.00,,,0.00,meteohub,2013-07-14 14:03:00,
2013-07-14 07:08:00,59.4,51.4,30.06,NW,315,3.0,4.0,75,0.00,,,0.00,meteohub,2013-07-14 14:08:00,
2013-07-14 07:13:00,59.9,52.0,30.06,West,270,3.0,4.0,75,0.00,,,0.00,meteohub,2013-07-14 14:13:00,
2013-07-14 07:18:00,60.3,51.6,30.06,West,270,4.0,4.0,73,0.00,,,0.00,meteohub,2013-07-14 14:18:00,
2013-07-14 07:23:00,60.3,52.0,30.06,NW,315,4.0,4.0,74,0.00,,,0.00,meteohub,2013-07-14 14:23:00,
2013-07-14 07:28:00,60.3,52.0,30.06,NW,315,3.0,4.0,74,0.00,,,0.00,meteohub,2013-07-14 14:28:00,
2013-07-14 07:33:00,61.0,52.0,30.06,NW,315,3.0,4.0,72,0.00,,,0.00,meteohub,2013-07-14 14:33:00,
2013-07-14 07:38:00,61.7,52.2,30.06,NW,315,4.0,4.0,71,0.00,,,0.00,meteohub,2013-07-14 14:38:00,
2013-07-14 07:43:00,61.7,52.2,30.06,NW,315,4.0,4.0,71,0.00,,,0.00,meteohub,2013-07-14 14:43:00,
2013-07-14 07:48:00,62.6,52.7,30.06,NW,315,2.0,4.0,70,0.00,,,0.00,meteohub,2013-07-14 14:48:00,
2013-07-14 07:53:00,63.7,53.2,30.06,West,270,1.0,4.0,69,0.00,,,0.00,meteohub,2013-07-14 14:53:00,
2013-07-14 07:58:00,66.9,55.2,30.06,West,270,2.0,4.0,66,0.00,,,0.00,meteohub,2013-07-14 14:58:00,
2013-07-14 08:03:00,67.8,54.0,30.06,SW,225,2.0,4.0,61,0.00,,,0.00,meteohub,2013-07-14 15:03:00,
2013-07-14 08:08:00,68.4,54.0,30.06,SE,135,2.0,4.0,60,0.00,,,0.00,meteohub,2013-07-14 15:08:00,
2013-07-14 08:13:00,68.2,54.1,30.06,South,180,5.0,5.0,61,0.00,,,0.00,meteohub,2013-07-14 15:13:00,
2013-07-14 08:18:00,65.8,53.2,30.06,South,180,6.0,6.0,64,0.00,,,0.00,meteohub,2013-07-14 15:18:00,
2013-07-14 08:23:00,64.8,53.1,30.06,South,180,7.0,7.0,66,0.00,,,0.00,meteohub,2013-07-14 15:23:00,
2013-07-14 08:24:00,64.9,53.2,30.06,South,180,5.0,7.0,66,0.00,,,0.00,meteohub,2013-07-14 15:24:00,
2013-07-14 08:29:00,66.2,53.6,30.06,South,180,4.0,7.0,64,0.00,,,0.00,meteohub,2013-07-14 15:29:00,
2013-07-14 08:34:00,66.0,53.4,30.06,South,180,4.0,7.0,64,0.00,,,0.00,meteohub,2013-07-14 15:34:00,
2013-07-14 08:39:00,65.8,53.8,30.06,SE,135,8.0,8.0,65,0.00,,,0.00,meteohub,2013-07-14 15:39:00,
2013-07-14 08:44:00,65.5,53.8,30.06,SE,135,6.0,7.0,66,0.00,,,0.00,meteohub,2013-07-14 15:44:00,
2013-07-14 08:49:00,65.5,54.3,30.06,SE,135,9.0,9.0,67,0.00,,,0.00,meteohub,2013-07-14 15:49:00,
2013-07-14 08:54:00,65.5,53.8,30.06,SE,135,7.0,9.0,66,0.00,,,0.00,meteohub,2013-07-14 15:54:00,
2013-07-14 08:59:00,65.7,54.0,30.06,South,180,5.0,9.0,66,0.00,,,0.00,meteohub,2013-07-14 15:59:00,
2013-07-14 09:04:00,65.5,53.1,30.06,South,180,10.0,10.0,64,0.00,,,0.00,meteohub,2013-07-14 16:04:00,
2013-07-14 09:09:00,65.5,53.4,30.06,South,180,8.0,10.0,65,0.00,,,0.00,meteohub,2013-07-14 16:09:00,
2013-07-14 09:14:00,66.4,53.8,30.06,SSE,158,7.0,11.0,64,0.00,,,0.00,meteohub,2013-07-14 16:14:00,
2013-07-14 09:19:00,66.4,53.4,30.06,South,180,10.0,11.0,63,0.00,,,0.00,meteohub,2013-07-14 16:19:00,
2013-07-14 09:24:00,67.6,54.1,30.06,South,180,5.0,11.0,62,0.00,,,0.00,meteohub,2013-07-14 16:24:00,
2013-07-14 09:29:00,67.5,54.0,30.05,SW,225,7.0,11.0,62,0.00,,,0.00,meteohub,2013-07-14 16:29:00,
2013-07-14 09:34:00,68.4,54.0,30.06,SE,135,8.0,11.0,60,0.00,,,0.00,meteohub,2013-07-14 16:34:00,
2013-07-14 09:39:00,68.2,54.1,30.06,SE,135,6.0,11.0,61,0.00,,,0.00,meteohub,2013-07-14 16:39:00,
2013-07-14 09:44:00,68.7,53.8,30.06,SE,135,12.0,12.0,59,0.00,,,0.00,meteohub,2013-07-14 16:44:00,
2013-07-14 09:49:00,69.1,54.1,30.06,SE,135,9.0,12.0,59,0.00,,,0.00,meteohub,2013-07-14 16:49:00,
2013-07-14 09:54:00,69.4,54.0,30.06,SE,135,5.0,12.0,58,0.00,,,0.00,meteohub,2013-07-14 16:54:00,
2013-07-14 09:59:00,70.2,53.8,30.05,South,180,7.0,12.0,56,0.00,,,0.00,meteohub,2013-07-14 16:59:00,
2013-07-14 10:04:00,69.1,53.6,30.06,South,180,11.0,11.0,58,0.00,,,0.00,meteohub,2013-07-14 17:04:00,
2013-07-14 10:09:00,69.4,53.6,30.05,South,180,10.0,14.0,57,0.00,,,0.00,meteohub,2013-07-14 17:09:00,
2013-07-14 10:14:00,70.0,53.6,30.05,South,180,9.0,14.0,56,0.00,,,0.00,meteohub,2013-07-14 17:14:00,
2013-07-14 10:19:00,70.3,54.0,30.05,SW,225,9.0,14.0,56,0.00,,,0.00,meteohub,2013-07-14 17:19:00,
2013-07-14 10:24:00,70.5,53.1,30.04,South,180,8.0,11.0,54,0.00,,,0.00,meteohub,2013-07-14 17:24:00,
2013-07-14 10:29:00,71.1,53.1,30.04,SE,135,8.0,11.0,53,0.00,,,0.00,meteohub,2013-07-14 17:29:00,
2013-07-14 10:34:00,71.1,53.6,30.05,SE,135,17.0,17.0,54,0.00,,,0.00,meteohub,2013-07-14 17:34:00,
2013-07-14 10:39:00,70.9,52.9,30.04,South,180,11.0,17.0,53,0.00,,,0.00,meteohub,2013-07-14 17:39:00,
2013-07-14 10:44:00,71.2,53.2,30.04,South,180,11.0,17.0,53,0.00,,,0.00,meteohub,2013-07-14 17:44:00,
2013-07-14 10:49:00,72.0,53.4,30.04,SE,135,13.0,17.0,52,0.00,,,0.00,meteohub,2013-07-14 17:49:00,
2013-07-14 10:54:00,72.1,53.6,30.04,South,180,8.0,13.0,52,0.00,,,0.00,meteohub,2013-07-14 17:54:00,
2013-07-14 10:59:00,72.5,52.9,30.04,SE,135,12.0,14.0,50,0.00,,,0.00,meteohub,2013-07-14 17:59:00,
2013-07-14 11:04:00,72.9,53.1,30.04,SE,135,10.0,14.0,50,0.00,,,0.00,meteohub,2013-07-14 18:04:00,
2013-07-14 11:09:00,72.7,52.3,30.04,SE,135,15.0,15.0,49,0.00,,,0.00,meteohub,2013-07-14 18:09:00,
2013-07-14 11:14:00,73.2,53.4,30.03,SE,135,10.0,15.0,50,0.00,,,0.00,meteohub,2013-07-14 18:14:00,
2013-07-14 11:19:00,73.4,53.1,30.04,South,180,10.0,15.0,49,0.00,,,0.00,meteohub,2013-07-14 18:19:00,
2013-07-14 11:24:00,73.9,53.6,30.03,South,180,11.0,15.0,49,0.00,,,0.00,meteohub,2013-07-14 18:24:00,
2013-07-14 11:29:00,74.3,54.5,30.04,SE,135,11.0,13.0,50,0.00,,,0.00,meteohub,2013-07-14 18:29:00,
2013-07-14 11:34:00,73.9,53.6,30.03,South,180,8.0,14.0,49,0.00,,,0.00,meteohub,2013-07-14 18:34:00,
2013-07-14 11:39:00,75.2,54.7,30.04,South,180,12.0,16.0,49,0.00,,,0.00,meteohub,2013-07-14 18:39:00,
2013-07-14 11:44:00,74.7,53.6,30.03,SSE,158,15.0,16.0,48,0.00,,,0.00,meteohub,2013-07-14 18:44:00,
2013-07-14 11:49:00,75.2,54.7,30.03,South,180,9.0,16.0,49,0.00,,,0.00,meteohub,2013-07-14 18:49:00,
2013-07-14 11:54:00,75.6,54.5,30.03,SSW,203,13.0,15.0,48,0.00,,,0.00,meteohub,2013-07-14 18:54:00,
2013-07-14 11:59:00,75.9,53.6,30.03,SE,135,11.0,15.0,46,0.00,,,0.00,meteohub,2013-07-14 18:59:00,
2013-07-14 12:04:00,75.9,54.3,30.03,SE,135,11.0,14.0,47,0.00,,,0.00,meteohub,2013-07-14 19:04:00,
2013-07-14 12:09:00,75.9,53.6,30.02,South,180,15.0,15.0,46,0.00,,,0.00,meteohub,2013-07-14 19:09:00,
2013-07-14 12:14:00,75.9,54.3,30.02,SSE,158,15.0,15.0,47,0.00,,,0.00,meteohub,2013-07-14 19:14:00,
2013-07-14 12:19:00,76.1,53.8,30.02,South,180,11.0,16.0,46,0.00,,,0.00,meteohub,2013-07-14 19:19:00,
2013-07-14 12:24:00,76.6,54.3,30.02,SSE,158,10.0,16.0,46,0.00,,,0.00,meteohub,2013-07-14 19:24:00,
2013-07-14 12:29:00,76.6,53.8,30.01,SE,135,13.0,16.0,45,0.00,,,0.00,meteohub,2013-07-14 19:29:00,
2013-07-14 12:34:00,77.4,54.3,30.02,SE,135,12.0,17.0,45,0.00,,,0.00,meteohub,2013-07-14 19:34:00,
2013-07-14 12:39:00,77.5,54.5,30.01,South,180,9.0,17.0,45,0.00,,,0.00,meteohub,2013-07-14 19:39:00,
2013-07-14 12:44:00,78.1,54.3,30.02,South,180,8.0,17.0,44,0.00,,,0.00,meteohub,2013-07-14 19:44:00,
2013-07-14 12:49:00,77.9,54.3,30.01,SE,135,15.0,15.0,44,0.00,,,0.00,meteohub,2013-07-14 19:49:00,
2013-07-14 12:54:00,77.9,53.6,30.01,South,180,12.0,15.0,43,0.00,,,0.00,meteohub,2013-07-14 19:54:00,
2013-07-14 12:59:00,78.8,53.8,30.01,SE,135,12.0,15.0,42,0.00,,,0.00,meteohub,2013-07-14 19:59:00,
2013-07-14 13:04:00,78.3,53.2,30.01,SE,135,16.0,16.0,42,0.00,,,0.00,meteohub,2013-07-14 20:04:00,
2013-07-14 13:09:00,78.4,54.1,30.01,South,180,8.0,17.0,43,0.00,,,0.00,meteohub,2013-07-14 20:09:00,
2013-07-14 13:14:00,79.3,52.9,30.00,South,180,12.0,17.0,40,0.00,,,0.00,meteohub,2013-07-14 20:14:00,
2013-07-14 13:19:00,80.6,54.7,30.01,SE,135,11.0,17.0,41,0.00,,,0.00,meteohub,2013-07-14 20:19:00,
2013-07-14 13:24:00,80.6,53.4,30.00,SE,135,11.0,15.0,39,0.00,,,0.00,meteohub,2013-07-14 20:24:00,
2013-07-14 13:29:00,80.8,54.9,30.00,SE,135,8.0,15.0,41,0.00,,,0.00,meteohub,2013-07-14 20:29:00,
2013-07-14 13:34:00,81.0,53.6,30.00,SE,135,15.0,15.0,39,0.00,,,0.00,meteohub,2013-07-14 20:34:00,
2013-07-14 13:39:00,81.0,54.3,29.99,SE,135,14.0,14.0,40,0.00,,,0.00,meteohub,2013-07-14 20:39:00,
2013-07-14 13:44:00,81.1,53.1,29.99,SE,135,16.0,16.0,38,0.00,,,0.00,meteohub,2013-07-14 20:44:00,
2013-07-14 13:50:00,81.5,54.1,29.99,SE,135,12.0,16.0,39,0.00,,,0.00,meteohub,2013-07-14 20:50:00,
2013-07-14 13:55:00,81.0,53.6,29.99,SE,135,13.0,16.0,39,0.00,,,0.00,meteohub,2013-07-14 20:55:00,
2013-07-14 14:00:00,81.5,52.0,29.99,SE,135,10.0,17.0,36,0.00,,,0.00,meteohub,2013-07-14 21:00:00,
2013-07-14 14:05:00,82.0,53.2,29.98,SW,225,8.0,17.0,37,0.00,,,0.00,meteohub,2013-07-14 21:05:00,
2013-07-14 14:10:00,82.8,53.1,29.98,SE,135,15.0,17.0,36,0.00,,,0.00,meteohub,2013-07-14 21:10:00,
2013-07-14 14:15:00,82.6,52.2,29.98,SE,135,15.0,15.0,35,0.00,,,0.00,meteohub,2013-07-14 21:15:00,
2013-07-14 14:20:00,82.2,54.1,29.98,South,180,10.0,16.0,38,0.00,,,0.00,meteohub,2013-07-14 21:20:00,
2013-07-14 14:25:00,83.1,52.7,29.98,South,180,15.0,17.0,35,0.00,,,0.00,meteohub,2013-07-14 21:25:00,
2013-07-14 14:30:00,83.1,51.8,29.98,SE,135,17.0,17.0,34,0.00,,,0.00,meteohub,2013-07-14 21:30:00,
2013-07-14 14:35:00,83.3,52.9,29.97,South,180,15.0,21.0,35,0.00,,,0.00,meteohub,2013-07-14 21:35:00,
2013-07-14 14:40:00,83.3,52.0,29.97,SE,135,11.0,21.0,34,0.00,,,0.00,meteohub,2013-07-14 21:40:00,
2013-07-14 14:45:00,83.5,53.8,29.97,SE,135,13.0,17.0,36,0.00,,,0.00,meteohub,2013-07-14 21:45:00,
2013-07-14 14:50:00,84.0,50.9,29.97,South,180,12.0,17.0,32,0.00,,,0.00,meteohub,2013-07-14 21:50:00,
2013-07-14 14:55:00,84.2,52.0,29.97,South,180,11.0,18.0,33,0.00,,,0.00,meteohub,2013-07-14 21:55:00,
2013-07-14 15:00:00,84.7,51.6,29.96,SE,135,17.0,18.0,32,0.00,,,0.00,meteohub,2013-07-14 22:00:00,
2013-07-14 15:05:00,84.6,51.4,29.96,South,180,12.0,18.0,32,0.00,,,0.00,meteohub,2013-07-14 22:05:00,
2013-07-14 15:10:00,84.4,52.2,29.96,South,180,14.0,17.0,33,0.00,,,0.00,meteohub,2013-07-14 22:10:00,
2013-07-14 15:15:00,85.1,52.7,29.96,South,180,15.0,17.0,33,0.00,,,0.00,meteohub,2013-07-14 22:15:00,
2013-07-14 15:20:00,85.1,52.0,29.96,SE,135,9.0,17.0,32,0.00,,,0.00,meteohub,2013-07-14 22:20:00,
2013-07-14 15:25:00,84.7,53.2,29.96,South,180,12.0,16.0,34,0.00,,,0.00,meteohub,2013-07-14 22:25:00,
2013-07-14 15:30:00,84.9,52.5,29.95,SSE,158,14.0,18.0,33,0.00,,,0.00,meteohub,2013-07-14 22:30:00,
2013-07-14 15:35:00,84.7,51.6,29.95,South,180,12.0,18.0,32,0.00,,,0.00,meteohub,2013-07-14 22:35:00,
2013-07-14 15:40:00,85.1,52.0,29.95,SW,225,15.0,18.0,32,0.00,,,0.00,meteohub,2013-07-14 22:40:00,
2013-07-14 15:45:00,85.1,51.1,29.95,South,180,16.0,17.0,31,0.00,,,0.00,meteohub,2013-07-14 22:45:00,
2013-07-14 15:50:00,85.1,51.1,29.94,South,180,13.0,18.0,31,0.00,,,0.00,meteohub,2013-07-14 22:50:00,
2013-07-14 15:55:00,86.0,52.7,29.95,SSE,158,8.0,18.0,32,0.00,,,0.00,meteohub,2013-07-14 22:55:00,
2013-07-14 16:00:00,85.8,51.6,29.94,South,180,8.0,18.0,31,0.00,,,0.00,meteohub,2013-07-14 23:00:00,
2013-07-14 16:05:00,86.0,51.8,29.94,SE,135,16.0,18.0,31,0.00,,,0.00,meteohub,2013-07-14 23:05:00,
2013-07-14 16:10:00,85.6,51.6,29.94,South,180,14.0,18.0,31,0.00,,,0.00,meteohub,2013-07-14 23:10:00,
2013-07-14 16:15:00,86.2,52.0,29.94,SE,135,14.0,21.0,31,0.00,,,0.00,meteohub,2013-07-14 23:15:00,
2013-07-14 16:20:00,86.5,50.5,29.94,SE,135,15.0,21.0,29,0.00,,,0.00,meteohub,2013-07-14 23:20:00,
2013-07-14 16:25:00,86.5,49.6,29.94,SE,135,20.0,20.0,28,0.00,,,0.00,meteohub,2013-07-14 23:25:00,
2013-07-14 16:30:00,86.5,50.5,29.93,South,180,10.0,20.0,29,0.00,,,0.00,meteohub,2013-07-14 23:30:00,
2013-07-14 16:35:00,86.7,51.6,29.93,SE,135,15.0,20.0,30,0.00,,,0.00,meteohub,2013-07-14 23:35:00,
2013-07-14 16:40:00,86.7,50.7,29.93,SSE,158,16.0,20.0,29,0.00,,,0.00,meteohub,2013-07-14 23:40:00,
2013-07-14 16:45:00,87.4,49.3,29.94,SE,135,17.0,17.0,27,0.00,,,0.00,meteohub,2013-07-14 23:45:00,
2013-07-14 16:50:00,87.3,49.3,29.93,SE,135,16.0,21.0,27,0.00,,,0.00,meteohub,2013-07-14 23:50:00,
2013-07-14 16:55:00,87.1,49.1,29.92,South,180,16.0,21.0,27,0.00,,,0.00,meteohub,2013-07-14 23:55:00,
2013-07-14 17:00:00,87.6,49.5,29.93,SE,135,11.0,17.0,27,0.00,,,0.00,meteohub,2013-07-15 00:00:00,
2013-07-14 17:05:00,87.6,50.5,29.92,South,180,15.0,16.0,28,0.00,,,0.00,meteohub,2013-07-15 00:05:00,
2013-07-14 17:10:00,87.3,50.2,29.92,South,180,14.0,18.0,28,0.00,,,0.00,meteohub,2013-07-15 00:10:00,
2013-07-14 17:15:00,87.3,48.2,29.92,South,180,13.0,18.0,26,0.00,,,0.00,meteohub,2013-07-15 00:15:00,
2013-07-14 17:20:00,87.6,47.5,29.92,South,180,11.0,18.0,25,0.00,,,0.00,meteohub,2013-07-15 00:20:00,
2013-07-14 17:25:00,87.6,48.6,29.91,SSE,158,11.0,18.0,26,0.00,,,0.00,meteohub,2013-07-15 00:25:00,
2013-07-14 17:30:00,88.0,44.4,29.92,SE,135,15.0,16.0,22,0.00,,,0.00,meteohub,2013-07-15 00:30:00,
2013-07-14 17:35:00,87.8,46.6,29.92,SE,135,15.0,17.0,24,0.00,,,0.00,meteohub,2013-07-15 00:35:00,
2013-07-14 17:40:00,87.8,45.3,29.91,SE,135,15.0,18.0,23,0.00,,,0.00,meteohub,2013-07-15 00:40:00,
2013-07-14 17:45:00,87.6,45.3,29.91,SE,135,19.0,19.0,23,0.00,,,0.00,meteohub,2013-07-15 00:45:00,
2013-07-14 17:50:00,87.6,44.1,29.91,SE,135,17.0,19.0,22,0.00,,,0.00,meteohub,2013-07-15 00:50:00,
2013-07-14 17:55:00,87.4,45.1,29.91,SE,135,13.0,19.0,23,0.00,,,0.00,meteohub,2013-07-15 00:55:00,
2013-07-14 18:00:00,87.6,42.8,29.91,SE,135,10.0,19.0,21,0.00,,,0.00,meteohub,2013-07-15 01:00:00,
2013-07-14 18:05:00,87.6,42.8,29.91,South,180,11.0,19.0,21,0.00,,,0.00,meteohub,2013-07-15 01:05:00,
2013-07-14 18:10:00,88.2,44.6,29.91,SE,135,12.0,19.0,22,0.00,,,0.00,meteohub,2013-07-15 01:10:00,
2013-07-14 18:15:00,88.0,44.4,29.91,SSE,158,15.0,19.0,22,0.00,,,0.00,meteohub,2013-07-15 01:15:00,
2013-07-14 18:20:00,87.6,42.8,29.91,SE,135,14.0,17.0,21,0.00,,,0.00,meteohub,2013-07-15 01:20:00,
2013-07-14 18:25:00,87.4,43.9,29.91,SSE,158,15.0,17.0,22,0.00,,,0.00,meteohub,2013-07-15 01:25:00,
2013-07-14 18:30:00,87.4,43.9,29.91,South,180,14.0,17.0,22,0.00,,,0.00,meteohub,2013-07-15 01:30:00,
2013-07-14 18:35:00,87.8,43.0,29.90,SE,135,14.0,17.0,21,0.00,,,0.00,meteohub,2013-07-15 01:35:00,
2013-07-14 18:40:00,87.6,44.1,29.91,South,180,11.0,15.0,22,0.00,,,0.00,meteohub,2013-07-15 01:40:00,
2013-07-14 18:45:00,87.6,42.8,29.90,South,180,16.0,16.0,21,0.00,,,0.00,meteohub,2013-07-15 01:45:00,
2013-07-14 18:50:00,87.3,43.7,29.91,South,180,15.0,16.0,22,0.00,,,0.00,meteohub,2013-07-15 01:50:00,
2013-07-14 18:55:00,87.3,42.6,29.91,South,180,15.0,16.0,21,0.00,,,0.00,meteohub,2013-07-15 01:55:00,
2013-07-14 19:00:00,87.3,43.7,29.91,South,180,12.0,16.0,22,0.00,,,0.00,meteohub,2013-07-15 02:00:00,
2013-07-14 19:05:00,87.3,42.6,29.90,South,180,14.0,16.0,21,0.00,,,0.00,meteohub,2013-07-15 02:05:00,
2013-07-14 19:10:00,87.4,42.8,29.91,South,180,12.0,16.0,21,0.00,,,0.00,meteohub,2013-07-15 02:10:00,
2013-07-14 19:15:00,87.1,41.2,29.91,South,180,13.0,16.0,20,0.00,,,0.00,meteohub,2013-07-15 02:15:00,
2013-07-14 19:20:00,86.9,39.7,29.91,SSE,158,15.0,16.0,19,0.00,,,0.00,meteohub,2013-07-15 02:20:00,
2013-07-14 19:25:00,86.9,39.7,29.91,South,180,11.0,16.0,19,0.00,,,0.00,meteohub,2013-07-15 02:25:00,
2013-07-14 19:30:00,86.9,41.0,29.91,SE,135,12.0,16.0,20,0.00,,,0.00,meteohub,2013-07-15 02:30:00,
2013-07-14 19:35:00,86.9,41.0,29.91,South,180,9.0,15.0,20,0.00,,,0.00,meteohub,2013-07-15 02:35:00,
2013-07-14 19:40:00,86.7,39.6,29.91,SE,135,14.0,14.0,19,0.00,,,0.00,meteohub,2013-07-15 02:40:00,
2013-07-14 19:45:00,86.4,40.6,29.91,SSE,158,10.0,14.0,20,0.00,,,0.00,meteohub,2013-07-15 02:45:00,
2013-07-14 19:50:00,86.4,40.6,29.91,SE,135,10.0,14.0,20,0.00,,,0.00,meteohub,2013-07-15 02:50:00,
2013-07-14 19:55:00,86.0,41.5,29.91,SSE,158,8.0,14.0,21,0.00,,,0.00,meteohub,2013-07-15 02:55:00,
2013-07-14 20:00:00,85.6,42.4,29.91,South,180,12.0,13.0,22,0.00,,,0.00,meteohub,2013-07-15 03:00:00,
2013-07-14 20:05:00,85.3,42.1,29.91,South,180,11.0,13.0,22,0.00,,,0.00,meteohub,2013-07-15 03:05:00,
2013-07-14 20:10:00,84.9,44.1,29.91,South,180,8.0,13.0,24,0.00,,,0.00,meteohub,2013-07-15 03:10:00,
2013-07-14 20:15:00,84.7,42.8,29.91,SSE,158,8.0,13.0,23,0.00,,,0.00,meteohub,2013-07-15 03:15:00,
2013-07-14 20:20:00,84.4,44.8,29.91,SE,135,8.0,11.0,25,0.00,,,0.00,meteohub,2013-07-15 03:20:00,
2013-07-14 20:25:00,83.1,45.7,29.91,SE,135,7.0,8.0,27,0.00,,,0.00,meteohub,2013-07-15 03:25:00,
2013-07-14 20:30:00,82.2,49.5,29.92,SE,135,8.0,9.0,32,0.00,,,0.00,meteohub,2013-07-15 03:30:00,
2013-07-14 20:35:00,80.8,54.1,29.92,SE,135,8.0,11.0,40,0.00,,,0.00,meteohub,2013-07-15 03:35:00,
2013-07-14 20:40:00,79.9,54.1,29.92,ESE,113,8.0,11.0,41,0.00,,,0.00,meteohub,2013-07-15 03:40:00,
2013-07-14 20:45:00,78.8,54.5,29.92,SE,135,8.0,11.0,43,0.00,,,0.00,meteohub,2013-07-15 03:45:00,
2013-07-14 20:50:00,77.5,55.0,29.92,SE,135,8.0,11.0,46,0.00,,,0.00,meteohub,2013-07-15 03:50:00,
2013-07-14 20:55:00,76.3,54.5,29.92,SE,135,7.0,9.0,47,0.00,,,0.00,meteohub,2013-07-15 03:55:00,
2013-07-14 21:00:00,75.7,54.1,29.92,SE,135,11.0,11.0,47,0.00,,,0.00,meteohub,2013-07-15 04:00:00,
2013-07-14 21:01:00,75.7,54.1,29.92,SE,135,11.0,11.0,47,0.00,,,0.00,meteohub,2013-07-15 04:01:00,
2013-07-14 21:06:00,75.7,54.1,29.92,SE,135,11.0,14.0,47,0.00,,,0.00,meteohub,2013-07-15 04:06:00,
2013-07-14 21:11:00,75.9,53.6,29.93,SE,135,12.0,14.0,46,0.00,,,0.00,meteohub,2013-07-15 04:11:00,
2013-07-14 21:16:00,75.6,54.0,29.93,SE,135,9.0,14.0,47,0.00,,,0.00,meteohub,2013-07-15 04:16:00,
2013-07-14 21:21:00,75.0,53.4,29.93,SE,135,10.0,13.0,47,0.00,,,0.00,meteohub,2013-07-15 04:21:00,
2013-07-14 21:26:00,74.8,53.2,29.93,SE,135,11.0,13.0,47,0.00,,,0.00,meteohub,2013-07-15 04:26:00,
2013-07-14 21:31:00,74.3,53.4,29.93,SE,135,10.0,12.0,48,0.00,,,0.00,meteohub,2013-07-15 04:31:00,
2013-07-14 21:36:00,74.1,53.2,29.94,SE,135,10.0,12.0,48,0.00,,,0.00,meteohub,2013-07-15 04:36:00,
2013-07-14 21:41:00,73.6,52.7,29.94,SE,135,9.0,13.0,48,0.00,,,0.00,meteohub,2013-07-15 04:41:00,
2013-07-14 21:46:00,73.2,52.3,29.94,SE,135,11.0,13.0,48,0.00,,,0.00,meteohub,2013-07-15 04:46:00,
2013-07-14 21:51:00,72.7,51.8,29.94,SE,135,8.0,11.0,48,0.00,,,0.00,meteohub,2013-07-15 04:51:00,
2013-07-14 21:56:00,72.3,52.2,29.95,SE,135,7.0,11.0,49,0.00,,,0.00,meteohub,2013-07-15 04:56:00,
2013-07-14 22:01:00,72.0,51.8,29.94,SE,135,7.0,11.0,49,0.00,,,0.00,meteohub,2013-07-15 05:01:00,
2013-07-14 22:06:00,71.6,51.4,29.94,SE,135,6.0,8.0,49,0.00,,,0.00,meteohub,2013-07-15 05:06:00,
2013-07-14 22:11:00,71.2,51.1,29.95,SE,135,6.0,8.0,49,0.00,,,0.00,meteohub,2013-07-15 05:11:00,
2013-07-14 22:16:00,70.9,50.7,29.95,SE,135,7.0,8.0,49,0.00,,,0.00,meteohub,2013-07-15 05:16:00,
2013-07-14 22:21:00,70.5,50.9,29.95,SE,135,7.0,8.0,50,0.00,,,0.00,meteohub,2013-07-15 05:21:00,
2013-07-14 22:26:00,70.2,50.7,29.95,SE,135,4.0,8.0,50,0.00,,,0.00,meteohub,2013-07-15 05:26:00,
2013-07-14 22:31:00,69.8,50.9,29.95,SE,135,3.0,8.0,51,0.00,,,0.00,meteohub,2013-07-15 05:31:00,
2013-07-14 22:36:00,69.6,50.7,29.95,SE,135,1.0,7.0,51,0.00,,,0.00,meteohub,2013-07-15 05:36:00,
2013-07-14 22:41:00,69.3,50.9,29.95,North,0,2.0,4.0,52,0.00,,,0.00,meteohub,2013-07-15 05:41:00,
2013-07-14 22:46:00,68.9,51.1,29.95,North,0,2.0,3.0,53,0.00,,,0.00,meteohub,2013-07-15 05:46:00,
2013-07-14 22:51:00,68.4,51.1,29.95,North,0,2.0,3.0,54,0.00,,,0.00,meteohub,2013-07-15 05:51:00,
2013-07-14 22:56:00,67.8,50.5,29.95,North,0,3.0,3.0,54,0.00,,,0.00,meteohub,2013-07-15 05:56:00,
2013-07-14 23:01:00,67.8,51.1,29.96,NW,315,2.0,4.0,55,0.00,,,0.00,meteohub,2013-07-15 06:01:00,
2013-07-14 23:06:00,67.6,50.9,29.96,NW,315,2.0,4.0,55,0.00,,,0.00,meteohub,2013-07-15 06:06:00,
2013-07-14 23:11:00,67.6,50.4,29.96,South,180,3.0,4.0,54,0.00,,,0.00,meteohub,2013-07-15 06:11:00,
2013-07-14 23:16:00,67.8,50.5,29.96,South,180,2.0,4.0,54,0.00,,,0.00,meteohub,2013-07-15 06:16:00,
2013-07-14 23:21:00,67.6,50.4,29.96,SE,135,0.0,4.0,54,0.00,,,0.00,meteohub,2013-07-15 06:21:00,
2013-07-14 23:26:00,67.5,50.2,29.96,East,90,2.0,4.0,54,0.00,,,0.00,meteohub,2013-07-15 06:26:00,
2013-07-14 23:31:00,67.3,50.0,29.96,East,90,2.0,3.0,54,0.00,,,0.00,meteohub,2013-07-15 06:31:00,
2013-07-14 23:36:00,67.1,49.8,29.96,SE,135,3.0,3.0,54,0.00,,,0.00,meteohub,2013-07-15 06:36:00,
2013-07-14 23:41:00,66.9,49.3,29.96,SE,135,4.0,4.0,53,0.00,,,0.00,meteohub,2013-07-15 06:41:00,
2013-07-14 23:46:00,66.7,49.1,29.96,SE,135,2.0,4.0,53,0.00,,,0.00,meteohub,2013-07-15 06:46:00,
2013-07-14 23:51:00,66.4,48.7,29.96,North,0,1.0,4.0,53,0.00,,,0.00,meteohub,2013-07-15 06:51:00,
2013-07-14 23:56:00,66.0,48.4,29.96,West,270,2.0,4.0,53,0.00,,,0.00,meteohub,2013-07-15 06:56:00,